EZY96ME EGKK-LOWI

Flight info

Callsign EZY96ME
Flight time 1h 24m
Altitude 35000
Route ODVIK Y311 DVR UL9 KONAN DCT KOK UL607 FERDI DCT REMBA DCT LIRSU DCT KRH DCT TEDGO DCT BATUB M738 MADEB MADEB1B
Aircraft A320/M-SDE2E3FGHIJ1RWXYZ/LB1

Departure

Time 2026-05-07 10:41
Airport London Gatwick Airport (EGKK)

Arrival

Time 2026-05-07 12:06
Airport Innsbruck Airport (LOWI)
Time Latitude Longitude Altitude Speed Heading
2026-05-07 10:16 51.15573 -0.17756 204 ft 0 kts 348°
2026-05-07 10:29 51.15563 -0.17752 204 ft 4 kts 346°
2026-05-07 10:30 51.15517 -0.17717 214 ft 4 kts 298°
2026-05-07 10:30 51.15513 -0.17693 212 ft 0 kts 257°
2026-05-07 10:32 51.15507 -0.17738 210 ft 9 kts 258°
2026-05-07 10:33 51.15487 -0.17881 208 ft 17 kts 258°
2026-05-07 10:33 51.15463 -0.18055 207 ft 16 kts 258°
2026-05-07 10:33 51.15441 -0.18213 208 ft 10 kts 257°
2026-05-07 10:33 51.15404 -0.18279 205 ft 8 kts 185°
2026-05-07 10:34 51.15333 -0.18256 204 ft 14 kts 168°
2026-05-07 10:34 51.15227 -0.18219 204 ft 13 kts 170°
2026-05-07 10:34 51.15187 -0.18313 214 ft 11 kts 262°
2026-05-07 10:34 51.15169 -0.18445 210 ft 17 kts 258°
2026-05-07 10:35 51.15140 -0.18657 206 ft 20 kts 257°
2026-05-07 10:35 51.15111 -0.18875 211 ft 20 kts 258°
2026-05-07 10:35 51.15081 -0.19086 214 ft 19 kts 257°
2026-05-07 10:35 51.15053 -0.19296 207 ft 19 kts 258°
2026-05-07 10:36 51.15024 -0.19500 210 ft 19 kts 257°
2026-05-07 10:36 51.14997 -0.19698 213 ft 18 kts 258°
2026-05-07 10:36 51.14969 -0.19904 209 ft 22 kts 257°
2026-05-07 10:36 51.14933 -0.20157 207 ft 24 kts 258°
2026-05-07 10:37 51.14898 -0.20410 214 ft 24 kts 257°
2026-05-07 10:37 51.14867 -0.20635 212 ft 19 kts 257°
2026-05-07 10:37 51.14838 -0.20847 211 ft 20 kts 257°
2026-05-07 10:37 51.14808 -0.21064 208 ft 19 kts 257°
2026-05-07 10:38 51.14776 -0.21234 204 ft 15 kts 258°
2026-05-07 10:38 51.14750 -0.21378 211 ft 12 kts 232°
2026-05-07 10:38 51.14679 -0.21383 211 ft 11 kts 147°
2026-05-07 10:38 51.14613 -0.21322 211 ft 12 kts 165°
2026-05-07 10:39 51.14534 -0.21255 207 ft 15 kts 128°
2026-05-07 10:39 51.14527 -0.21119 213 ft 0 kts 75°
2026-05-07 10:40 51.14552 -0.20939 209 ft 46 kts 78°
2026-05-07 10:40 51.14672 -0.20067 210 ft 112 kts 77°
2026-05-07 10:41 51.14884 -0.18522 206 ft 164 kts 78°
2026-05-07 10:41 51.15057 -0.17314 464 ft 172 kts 78°
2026-05-07 10:41 51.15404 -0.14771 1443 ft 176 kts 81°
2026-05-07 10:41 51.15672 -0.12791 1812 ft 197 kts 79°
2026-05-07 10:42 51.15873 -0.11310 2071 ft 214 kts 78°
2026-05-07 10:42 51.16213 -0.08819 2565 ft 239 kts 78°
2026-05-07 10:42 51.16587 -0.06114 3162 ft 257 kts 78°
2026-05-07 10:42 51.16890 -0.03252 4000 ft 266 kts 89°
2026-05-07 10:43 51.16866 -0.00278 4965 ft 269 kts 92°
2026-05-07 10:43 51.16813 0.02712 5865 ft 271 kts 93°
2026-05-07 10:43 51.16750 0.05733 6748 ft 275 kts 93°
2026-05-07 10:43 51.16683 0.08809 7596 ft 279 kts 93°
2026-05-07 10:44 51.16616 0.11918 8459 ft 283 kts 92°
2026-05-07 10:44 51.16552 0.15064 9316 ft 286 kts 92°
2026-05-07 10:44 51.16517 0.18244 10134 ft 289 kts 90°
2026-05-07 10:44 51.16519 0.21438 10866 ft 293 kts 90°
2026-05-07 10:45 51.16533 0.24705 11599 ft 296 kts 89°
2026-05-07 10:45 51.16553 0.28009 12332 ft 301 kts 89°
2026-05-07 10:45 51.16570 0.31364 13065 ft 305 kts 90°
2026-05-07 10:45 51.16583 0.34770 13783 ft 309 kts 90°
2026-05-07 10:46 51.16588 0.38216 14450 ft 312 kts 90°
2026-05-07 10:46 51.16589 0.41694 15090 ft 316 kts 90°
2026-05-07 10:46 51.16587 0.45221 15742 ft 319 kts 90°
2026-05-07 10:46 51.16585 0.48736 16393 ft 322 kts 90°
2026-05-07 10:47 51.16583 0.52416 16657 ft 339 kts 90°
2026-05-07 10:47 51.16581 0.56279 16806 ft 358 kts 90°
2026-05-07 10:47 51.16579 0.60262 17240 ft 367 kts 90°
2026-05-07 10:47 51.16576 0.64351 17839 ft 371 kts 90°
2026-05-07 10:48 51.16569 0.68496 18430 ft 375 kts 90°
2026-05-07 10:48 51.16561 0.72675 18982 ft 377 kts 90°
2026-05-07 10:48 51.16552 0.76830 19530 ft 380 kts 90°
2026-05-07 10:48 51.16543 0.81067 20081 ft 383 kts 91°
2026-05-07 10:49 51.16534 0.85330 20629 ft 386 kts 90°
2026-05-07 10:49 51.16524 0.89639 21166 ft 389 kts 90°
2026-05-07 10:49 51.16512 0.93969 21734 ft 392 kts 90°
2026-05-07 10:49 51.16497 0.98331 22223 ft 395 kts 91°
2026-05-07 10:50 51.16478 1.02730 22706 ft 398 kts 91°
2026-05-07 10:50 51.16456 1.07111 23183 ft 401 kts 91°
2026-05-07 10:50 51.16431 1.11571 23664 ft 404 kts 91°
2026-05-07 10:50 51.16405 1.16071 24061 ft 407 kts 91°
2026-05-07 10:51 51.16377 1.20599 24453 ft 409 kts 91°
2026-05-07 10:51 51.16348 1.25144 24844 ft 411 kts 91°
2026-05-07 10:51 51.16315 1.29740 25233 ft 414 kts 91°
2026-05-07 10:51 51.16279 1.34281 25603 ft 416 kts 91°
2026-05-07 10:52 51.16202 1.38912 25979 ft 418 kts 93°
2026-05-07 10:52 51.16029 1.43550 26348 ft 421 kts 95°
2026-05-07 10:52 51.15792 1.48229 26697 ft 423 kts 95°
2026-05-07 10:52 51.15526 1.52920 27055 ft 426 kts 96°
2026-05-07 10:53 51.15259 1.57583 27395 ft 428 kts 95°
2026-05-07 10:53 51.14997 1.62327 27751 ft 431 kts 95°
2026-05-07 10:53 51.14745 1.67096 28104 ft 433 kts 95°
2026-05-07 10:53 51.14503 1.71902 28442 ft 435 kts 95°
2026-05-07 10:54 51.14267 1.76732 28779 ft 438 kts 95°
2026-05-07 10:54 51.14031 1.81587 29117 ft 440 kts 95°
2026-05-07 10:54 51.13788 1.86464 29448 ft 442 kts 95°
2026-05-07 10:54 51.13535 1.91368 29767 ft 445 kts 95°
2026-05-07 10:55 51.13278 1.96223 30070 ft 447 kts 95°
2026-05-07 10:55 51.13013 2.01175 30340 ft 449 kts 95°
2026-05-07 10:55 51.12749 2.06168 30599 ft 451 kts 95°
2026-05-07 10:55 51.12487 2.11132 30855 ft 453 kts 95°
2026-05-07 10:56 51.12222 2.16152 31108 ft 455 kts 95°
2026-05-07 10:56 51.11952 2.21189 31362 ft 456 kts 95°
2026-05-07 10:56 51.11675 2.26235 31711 ft 455 kts 95°
2026-05-07 10:56 51.11404 2.31181 32062 ft 454 kts 95°
2026-05-07 10:57 51.11127 2.36204 32422 ft 454 kts 96°
2026-05-07 10:57 51.10849 2.41205 32772 ft 453 kts 96°
2026-05-07 10:57 51.10565 2.46204 33130 ft 452 kts 96°
2026-05-07 10:57 51.10277 2.51199 33484 ft 451 kts 96°
2026-05-07 10:58 51.09988 2.56176 33834 ft 450 kts 96°
2026-05-07 10:58 51.09702 2.61134 34168 ft 450 kts 96°
2026-05-07 10:58 51.09275 2.65988 34437 ft 448 kts 103°
2026-05-07 10:58 51.08466 2.70784 34690 ft 448 kts 107°
2026-05-07 10:59 51.07599 2.75554 34934 ft 448 kts 107°
2026-05-07 10:59 51.06733 2.80315 35049 ft 446 kts 107°
2026-05-07 10:59 51.05018 2.89717 35082 ft 440 kts 107°
2026-05-07 11:00 51.03325 2.99002 35082 ft 439 kts 107°
2026-05-07 11:00 51.01615 3.08346 35078 ft 439 kts 107°
2026-05-07 11:01 50.99898 3.17676 35073 ft 439 kts 107°
2026-05-07 11:01 50.98176 3.26941 35066 ft 439 kts 107°
2026-05-07 11:02 50.96437 3.36246 35051 ft 439 kts 107°
2026-05-07 11:02 50.94699 3.45547 35049 ft 439 kts 108°
2026-05-07 11:03 50.92960 3.54773 35051 ft 438 kts 108°
2026-05-07 11:03 50.91194 3.64035 35059 ft 438 kts 108°
2026-05-07 11:04 50.89437 3.73295 35056 ft 438 kts 108°
2026-05-07 11:04 50.87677 3.82547 35058 ft 438 kts 108°
2026-05-07 11:05 50.85895 3.91814 35059 ft 438 kts 108°
2026-05-07 11:05 50.84112 4.01034 35062 ft 438 kts 108°
2026-05-07 11:06 50.82335 4.10199 35064 ft 438 kts 108°
2026-05-07 11:06 50.80540 4.19437 35066 ft 438 kts 108°
2026-05-07 11:07 50.78736 4.28659 35063 ft 438 kts 108°
2026-05-07 11:07 50.76930 4.37818 35063 ft 439 kts 108°
2026-05-07 11:08 50.75108 4.47030 35064 ft 439 kts 108°
2026-05-07 11:08 50.73284 4.56238 35063 ft 439 kts 108°
2026-05-07 11:09 50.71461 4.65386 35060 ft 439 kts 108°
2026-05-07 11:09 50.69621 4.74574 35043 ft 439 kts 109°
2026-05-07 11:10 50.67764 4.83771 35045 ft 439 kts 109°
2026-05-07 11:10 50.65783 4.92850 35043 ft 438 kts 116°
2026-05-07 11:11 50.63200 5.01487 35049 ft 437 kts 116°
2026-05-07 11:11 50.60588 5.10159 35042 ft 438 kts 116°
2026-05-07 11:12 50.57972 5.18821 35043 ft 438 kts 116°
2026-05-07 11:12 50.55361 5.27428 35040 ft 438 kts 116°
2026-05-07 11:13 50.52735 5.36051 35044 ft 438 kts 116°
2026-05-07 11:13 50.50089 5.44698 35032 ft 438 kts 116°
2026-05-07 11:14 50.47446 5.53330 35039 ft 438 kts 116°
2026-05-07 11:14 50.44811 5.61907 35035 ft 438 kts 116°
2026-05-07 11:15 50.42150 5.70514 35036 ft 438 kts 116°
2026-05-07 11:15 50.39481 5.79129 35033 ft 438 kts 116°
2026-05-07 11:16 50.36820 5.87713 35039 ft 438 kts 116°
2026-05-07 11:16 50.34141 5.96301 35030 ft 438 kts 116°
2026-05-07 11:17 50.31469 6.04839 35033 ft 438 kts 116°
2026-05-07 11:17 50.28787 6.13414 35019 ft 439 kts 116°
2026-05-07 11:18 50.26083 6.21985 35021 ft 439 kts 116°
2026-05-07 11:18 50.23368 6.30554 35006 ft 439 kts 116°
2026-05-07 11:19 50.20657 6.39088 35004 ft 439 kts 116°
2026-05-07 11:19 50.17600 6.47324 34995 ft 438 kts 129°
2026-05-07 11:20 50.13660 6.54603 34995 ft 439 kts 131°
2026-05-07 11:20 50.10382 6.60665 35009 ft 439 kts 131°
2026-05-07 11:21 50.05802 6.69151 35018 ft 440 kts 130°
2026-05-07 11:21 50.02517 6.75211 35023 ft 440 kts 131°
2026-05-07 11:22 49.98559 6.82479 35019 ft 440 kts 131°
2026-05-07 11:22 49.94595 6.89728 35021 ft 439 kts 131°
2026-05-07 11:23 49.90630 6.96960 35012 ft 439 kts 131°
2026-05-07 11:23 49.86681 7.04155 35014 ft 439 kts 131°
2026-05-07 11:24 49.82705 7.11381 35019 ft 439 kts 131°
2026-05-07 11:24 49.78730 7.18580 35020 ft 439 kts 131°
2026-05-07 11:25 49.74774 7.25730 35021 ft 439 kts 131°
2026-05-07 11:25 49.70795 7.32905 35021 ft 440 kts 131°
2026-05-07 11:26 49.66809 7.40080 35021 ft 440 kts 131°
2026-05-07 11:26 49.62801 7.47256 35025 ft 440 kts 131°
2026-05-07 11:27 49.58793 7.54395 35023 ft 440 kts 131°
2026-05-07 11:27 49.54809 7.61482 35032 ft 440 kts 131°
2026-05-07 11:28 49.50792 7.68622 35025 ft 440 kts 132°
2026-05-07 11:28 49.46776 7.75736 35019 ft 440 kts 132°
2026-05-07 11:29 49.42751 7.82851 35018 ft 440 kts 132°
2026-05-07 11:29 49.38745 7.89903 35028 ft 440 kts 132°
2026-05-07 11:30 49.34697 7.97004 35027 ft 441 kts 132°
2026-05-07 11:30 49.30664 8.04088 35025 ft 441 kts 132°
2026-05-07 11:31 49.26655 8.11111 35027 ft 441 kts 132°
2026-05-07 11:31 49.22600 8.18193 35005 ft 441 kts 133°
2026-05-07 11:32 49.16497 8.28765 35016 ft 442 kts 133°
2026-05-07 11:33 49.12450 8.35774 35018 ft 442 kts 133°
2026-05-07 11:33 49.08377 8.42821 35018 ft 442 kts 133°
2026-05-07 11:34 49.04291 8.49859 35022 ft 442 kts 133°
2026-05-07 11:34 49.00211 8.56852 35023 ft 442 kts 133°
2026-05-07 11:35 48.96194 8.63898 35018 ft 443 kts 131°
2026-05-07 11:35 48.92266 8.71130 35019 ft 443 kts 131°
2026-05-07 11:36 48.88324 8.78390 35018 ft 443 kts 131°
2026-05-07 11:36 48.84388 8.85532 35014 ft 443 kts 131°
2026-05-07 11:37 48.80410 8.92680 35017 ft 443 kts 131°
2026-05-07 11:37 48.76418 8.99835 35016 ft 443 kts 131°
2026-05-07 11:38 48.72463 9.06939 35017 ft 443 kts 131°
2026-05-07 11:38 48.68482 9.14083 35011 ft 443 kts 132°
2026-05-07 11:39 48.64502 9.21119 35008 ft 442 kts 136°
2026-05-07 11:39 48.59666 9.26705 34635 ft 432 kts 155°
2026-05-07 11:39 48.56930 9.28477 34220 ft 425 kts 163°
2026-05-07 11:40 48.54133 9.29903 33729 ft 422 kts 163°
2026-05-07 11:40 48.51353 9.31319 33151 ft 420 kts 163°
2026-05-07 11:40 48.48618 9.32712 32516 ft 420 kts 163°
2026-05-07 11:40 48.45846 9.34129 32096 ft 419 kts 163°
2026-05-07 11:41 48.43074 9.35548 31997 ft 420 kts 162°
2026-05-07 11:41 48.37511 9.38386 32026 ft 422 kts 163°
2026-05-07 11:42 48.31934 9.41219 32027 ft 422 kts 163°
2026-05-07 11:42 48.26398 9.44034 31953 ft 421 kts 163°
2026-05-07 11:42 48.23620 9.45447 31510 ft 417 kts 162°
2026-05-07 11:43 48.20901 9.46828 31199 ft 409 kts 162°
2026-05-07 11:43 48.18214 9.48188 30773 ft 405 kts 162°
2026-05-07 11:43 48.15552 9.49533 30317 ft 402 kts 162°
2026-05-07 11:43 48.12904 9.50868 29809 ft 399 kts 162°
2026-05-07 11:44 48.10267 9.52196 29276 ft 397 kts 162°
2026-05-07 11:44 48.07667 9.53508 28771 ft 394 kts 162°
2026-05-07 11:44 48.05084 9.54809 28286 ft 391 kts 162°
2026-05-07 11:44 48.02553 9.56247 27823 ft 388 kts 155°
2026-05-07 11:45 48.00243 9.58216 27384 ft 385 kts 145°
2026-05-07 11:45 47.98081 9.60557 26900 ft 382 kts 144°
2026-05-07 11:45 47.95940 9.62884 26434 ft 379 kts 144°
2026-05-07 11:45 47.93809 9.65191 25980 ft 377 kts 144°
2026-05-07 11:46 47.91685 9.67483 25534 ft 374 kts 144°
2026-05-07 11:46 47.89580 9.69748 25092 ft 372 kts 145°
2026-05-07 11:46 47.87508 9.71976 24663 ft 370 kts 145°
2026-05-07 11:46 47.85425 9.74214 24231 ft 367 kts 145°
2026-05-07 11:47 47.83348 9.76445 23789 ft 366 kts 145°
2026-05-07 11:47 47.81287 9.78657 23328 ft 364 kts 145°
2026-05-07 11:47 47.79227 9.80868 22846 ft 362 kts 145°
2026-05-07 11:47 47.77188 9.83056 22407 ft 360 kts 146°
2026-05-07 11:48 47.75188 9.85201 21975 ft 358 kts 146°
2026-05-07 11:48 47.73170 9.87362 21555 ft 355 kts 146°
2026-05-07 11:48 47.71168 9.89504 21133 ft 353 kts 146°
2026-05-07 11:48 47.69174 9.91633 20713 ft 351 kts 146°
2026-05-07 11:49 47.67192 9.93747 20319 ft 349 kts 146°
2026-05-07 11:49 47.65249 9.95813 19944 ft 346 kts 146°
2026-05-07 11:49 47.63293 9.97891 19551 ft 344 kts 146°
2026-05-07 11:49 47.61349 9.99958 19183 ft 342 kts 146°
2026-05-07 11:50 47.59413 10.02018 18811 ft 341 kts 146°
2026-05-07 11:50 47.57489 10.04064 18465 ft 339 kts 146°
2026-05-07 11:50 47.55579 10.06095 18101 ft 336 kts 146°
2026-05-07 11:50 47.53699 10.08089 18028 ft 335 kts 147°
2026-05-07 11:51 47.51799 10.10097 18040 ft 336 kts 147°
2026-05-07 11:51 47.49897 10.12107 18041 ft 336 kts 147°
2026-05-07 11:51 47.47995 10.14115 18042 ft 336 kts 147°
2026-05-07 11:51 47.46078 10.16141 18041 ft 336 kts 147°
2026-05-07 11:52 47.44179 10.18144 18042 ft 336 kts 147°
2026-05-07 11:52 47.42246 10.20072 18027 ft 335 kts 150°
2026-05-07 11:52 47.40275 10.21902 18026 ft 334 kts 151°
2026-05-07 11:52 47.38309 10.23668 18027 ft 334 kts 152°
2026-05-07 11:53 47.36309 10.25443 18026 ft 334 kts 152°
2026-05-07 11:53 47.34393 10.27398 17807 ft 340 kts 141°
2026-05-07 11:53 47.32824 10.30051 16799 ft 348 kts 123°
2026-05-07 11:53 47.31840 10.33325 15971 ft 350 kts 106°
2026-05-07 11:54 47.31348 10.36824 15210 ft 348 kts 102°
2026-05-07 11:54 47.30885 10.40309 14577 ft 342 kts 102°
2026-05-07 11:54 47.30423 10.43699 14161 ft 331 kts 102°
2026-05-07 11:54 47.29970 10.46974 13764 ft 320 kts 103°
2026-05-07 11:55 47.29537 10.50085 13607 ft 308 kts 103°
2026-05-07 11:55 47.29113 10.53139 13487 ft 300 kts 102°
2026-05-07 11:55 47.28712 10.56111 13349 ft 285 kts 99°
2026-05-07 11:55 47.28663 10.58956 13241 ft 275 kts 86°
2026-05-07 11:56 47.28809 10.61709 13125 ft 271 kts 85°
2026-05-07 11:56 47.28950 10.64461 13001 ft 269 kts 86°
2026-05-07 11:56 47.29091 10.67254 12560 ft 278 kts 86°
2026-05-07 11:56 47.29235 10.70129 12091 ft 283 kts 86°
2026-05-07 11:57 47.29382 10.73002 11661 ft 278 kts 86°
2026-05-07 11:57 47.29525 10.75823 11211 ft 274 kts 86°
2026-05-07 11:57 47.29665 10.78605 10771 ft 270 kts 86°
2026-05-07 11:57 47.29804 10.81342 10363 ft 266 kts 86°
2026-05-07 11:58 47.29939 10.84026 9944 ft 257 kts 86°
2026-05-07 11:58 47.30067 10.86594 9516 ft 247 kts 86°
2026-05-07 11:58 47.30189 10.89073 9132 ft 236 kts 86°
2026-05-07 11:58 47.30306 10.91476 8801 ft 229 kts 85°
2026-05-07 11:59 47.30379 10.92992 8570 ft 218 kts 85°
2026-05-07 11:59 47.30483 10.95141 8226 ft 203 kts 85°
2026-05-07 11:59 47.30579 10.97153 7897 ft 191 kts 85°
2026-05-07 11:59 47.30668 10.99044 7632 ft 179 kts 85°
2026-05-07 12:00 47.30752 11.00821 7339 ft 169 kts 85°
2026-05-07 12:00 47.30834 11.02502 7083 ft 162 kts 85°
2026-05-07 12:00 47.30916 11.04154 6827 ft 160 kts 83°
2026-05-07 12:00 47.30987 11.05776 6576 ft 158 kts 89°
2026-05-07 12:01 47.30864 11.07369 6329 ft 157 kts 103°
2026-05-07 12:01 47.30504 11.08879 6065 ft 155 kts 114°
2026-05-07 12:01 47.30044 11.10311 5806 ft 155 kts 114°
2026-05-07 12:01 47.29573 11.11730 5560 ft 154 kts 115°
2026-05-07 12:02 47.29105 11.13135 5309 ft 152 kts 114°
2026-05-07 12:02 47.28639 11.14535 5057 ft 151 kts 113°
2026-05-07 12:02 47.28176 11.15927 4843 ft 151 kts 114°
2026-05-07 12:02 47.27725 11.17287 4609 ft 149 kts 112°
2026-05-07 12:03 47.27274 11.18652 4361 ft 148 kts 113°
2026-05-07 12:03 47.26825 11.20014 4135 ft 148 kts 114°
2026-05-07 12:03 47.26374 11.21384 3901 ft 149 kts 115°
2026-05-07 12:03 47.25920 11.22759 3653 ft 150 kts 114°
2026-05-07 12:04 47.25469 11.24125 3418 ft 148 kts 113°
2026-05-07 12:04 47.25196 11.25570 3166 ft 146 kts 96°
2026-05-07 12:04 47.25217 11.27054 2891 ft 145 kts 81°
2026-05-07 12:04 47.25390 11.28505 2624 ft 144 kts 78°
2026-05-07 12:05 47.25553 11.29962 2455 ft 144 kts 80°
2026-05-07 12:05 47.25699 11.31426 2220 ft 144 kts 81°
2026-05-07 12:05 47.25860 11.32914 1976 ft 143 kts 80°
2026-05-07 12:05 47.26000 11.34201 1909 ft 90 kts 81°
2026-05-07 12:06 47.26064 11.34778 1913 ft 44 kts 80°
2026-05-07 12:06 47.26102 11.35130 1909 ft 22 kts 81°
2026-05-07 12:06 47.26083 11.35255 1908 ft 5 kts 177°
2026-05-07 12:06 47.26034 11.35265 1909 ft 12 kts 170°
2026-05-07 12:07 47.25960 11.35283 1905 ft 9 kts 171°
2026-05-07 12:07 47.25907 11.35281 1914 ft 5 kts 232°
2026-05-07 12:07 47.25897 11.35222 1914 ft 8 kts 260°
2026-05-07 12:07 47.25886 11.35123 1914 ft 10 kts 261°
2026-05-07 12:08 47.25878 11.35052 1898 ft 0 kts 260°
2026-05-07 12:08 47.25860 11.35044 1911 ft 8 kts 194°
2026-05-07 12:08 47.25826 11.35050 1908 ft 1 kts 172°
2026-05-07 12:08 47.25823 11.35050 1914 ft 0 kts 172°